Lapse_Rate
5.5 5.4 5.2 5.2 5.0 5.4 5.7 5.8 5.4 5.1 5.3 5.5 6.1 6.4 6.2 6.0 6.1 6.3 6.6 6.2 6.2 6.1 6.4 6.3 6.8 7.3 7.1 6.8 6.9 7.2 6.9 6.8 6.3 6.2 6.3 6.2 6.6 6.6 6.5 6.8 6.4 6.7 6.6 6.5
6.1 6.8 6.9 6.6 6.3 6.2 6.3 6.3 5.6 6.1 5.9 6.2 6.2 6.4 6.5 6.6 6.6 6.6 6.4 5.9 6.0 6.3 6.3 6.2 6.4 6.6 7.5 7.7 7.5 7.6 7.6 7.1 5.9 6.0 5.7 6.3 6.2 6.2 6.2 6.2 6.4 6.4 6.0 6.1
6.3 6.8 6.9 6.4 6.9 7.0 6.9 6.6 6.5 6.3 6.9 6.9 7.0 7.0 6.8 6.6 6.4 6.3 6.5 6.4 6.2 6.4 6.5 6.7 6.4 6.2 6.2 7.3 8.2 7.3 7.3 7.1 6.3 5.8 6.0 6.4 6.0 5.7 5.9 5.8 6.0 5.5 5.2 5.7
6.4 6.5 5.2 7.0 7.0 6.9 7.0 7.0 6.6 6.7 7.0 7.2 7.0 6.9 7.1 6.8 6.1 6.4 6.6 6.5 6.2 6.1 6.0 6.0 6.3 6.4 6.1 5.9 6.8 7.8 7.1 6.8 6.6 6.5 6.4 6.5 5.5 5.2 5.1 5.7 6.1 5.5 5.6 5.6
7.1 6.9 7.1 7.1 7.2 7.4 7.3 7.5 7.6 7.6 7.7 7.7 7.6 7.2 7.6 7.5 6.9 6.5 6.4 6.8 6.8 6.7 6.6 6.4 6.1 6.0 5.8 6.1 6.1 6.7 6.4 6.7 7.1 6.9 6.8 6.0 5.6 5.7 5.6 6.2 5.6 5.4 5.5 5.5
7.2 7.1 6.6 7.4 7.8 7.9 7.9 7.5 8.0 8.2 8.1 7.9 7.6 7.4 7.6 8.0 7.5 7.4 7.3 7.0 6.9 6.8 6.6 6.5 6.6 6.4 6.0 5.7 5.9 6.0 6.0 5.9 6.2 6.6 7.1 6.4 5.9 5.7 5.5 5.3 5.5 5.5 5.5 5.3
7.4 7.4 7.6 7.9 7.9 8.0 7.8 8.0 8.0 7.9 7.9 7.6 7.6 7.5 7.6 8.0 7.9 7.4 7.2 7.2 7.2 6.9 7.1 6.3 6.4 6.3 6.1 6.3 6.2 6.1 6.0 6.0 6.6 6.7 6.9 6.5 6.1 5.8 5.5 5.3 5.2 5.0 4.9 5.2
7.2 7.4 6.9 8.1 8.0 8.1 8.4 8.1 8.1 7.8 7.8 7.7 7.7 7.8 7.5 7.8 7.7 7.4 7.3 7.6 7.5 7.4 7.0 6.5 6.5 6.4 6.4 6.4 6.8 6.6 6.3 6.3 6.2 6.5 6.6 6.3 6.2 5.5 5.6 5.5 5.2 5.2 4.9 4.9
7.8 8.0 8.1 8.1 8.1 8.1 8.1 8.2 8.2 8.0 8.0 7.8 7.7 7.9 7.8 7.8 7.8 7.5 7.3 7.9 8.2 7.9 7.1 7.2 6.9 6.9 6.8 6.7 6.4 6.4 6.3 6.3 6.1 5.9 5.9 6.1 5.8 5.6 5.5 6.0 6.1 5.6 5.4 5.9
8.1 8.3 8.3 8.3 8.1 8.1 8.1 8.0 7.9 7.9 7.8 7.7 7.7 7.6 7.6 7.6 7.5 7.4 7.3 7.7 7.7 7.8 7.2 7.3 7.5 7.1 7.1 7.2 7.1 6.6 6.4 6.2 6.2 6.3 6.6 6.6 6.2 6.5 6.3 6.4 6.5 6.4 6.5 6.1
8.0 8.1 8.0 8.1 8.1 8.1 8.0 7.9 7.7 7.7 7.7 7.6 7.4 7.4 7.4 7.4 7.1 6.9 6.9 7.0 7.4 7.1 6.6 6.8 7.3 6.9 6.7 6.6 6.8 6.5 6.4 6.2 6.4 6.5 6.8 6.9 6.8 6.8 6.6 6.8 6.9 7.0 7.1 7.7
7.9 7.9 7.8 7.9 8.1 8.1 8.2 8.1 8.2 8.2 8.1 8.0 7.8 7.5 7.3 7.1 6.9 6.7 6.7 6.9 6.3 6.4 6.7 6.8 7.0 6.8 6.7 7.0 6.6 6.4 6.1 6.5 6.9 7.2 7.1 6.8 6.8 6.8 7.2 8.0 8.4 8.4 8.4 8.4
7.9 7.9 8.0 8.0 7.9 7.9 7.9 7.8 7.8 7.8 7.8 7.8 8.0 7.6 7.2 6.9 6.7 6.5 6.4 6.7 6.1 6.5 6.5 6.9 6.9 7.0 6.8 6.4 6.3 6.1 5.9 6.1 6.9 6.9 6.7 6.8 7.0 7.3 7.7 7.8 7.9 8.3 8.5 8.1
8.0 8.0 8.1 7.9 7.8 7.8 7.7 7.7 7.6 7.2 7.1 7.6 7.9 7.5 6.9 6.7 6.7 6.6 6.4 6.7 6.4 6.2 6.5 6.4 6.2 6.5 6.5 6.6 6.4 6.1 5.9 6.0 6.3 6.7 6.8 6.9 7.2 7.7 8.0 8.0 7.8 7.7 7.5 7.5
8.0 7.8 7.7 7.6 7.6 7.4 7.4 7.4 7.4 7.1 7.1 7.2 7.4 7.1 6.6 6.6 6.3 6.4 6.7 6.8 6.6 6.2 6.4 6.5 6.2 6.2 6.0 6.2 6.2 6.2 6.0 6.4 6.8 7.0 7.3 7.5 7.6 7.6 7.5 7.5 7.6 7.6 7.8 7.7
8.2 7.9 7.6 7.4 7.5 7.3 7.4 7.5 7.3 7.1 7.1 7.3 7.2 6.8 6.4 6.3 6.3 6.4 6.7 6.7 6.6 6.5 6.3 6.1 6.0 6.1 6.5 6.8 6.6 6.6 6.6 7.1 7.2 7.3 7.4 7.4 7.5 7.5 7.5 7.7 7.8 7.7 7.8 7.8
8.1 8.0 7.8 7.5 7.3 7.3 7.5 7.7 7.8 7.5 7.2 7.1 7.1 6.5 6.5 6.8 6.5 6.3 6.3 6.4 6.4 6.3 6.3 6.2 6.3 6.4 6.5 6.6 6.8 7.3 7.4 7.3 7.3 7.4 7.5 7.5 7.6 7.8 7.7 7.6 7.6 7.7 7.7 7.6
8.0 7.8 7.6 7.5 7.5 7.5 7.6 7.7 7.9 7.8 7.5 7.1 7.0 6.7 6.5 6.6 6.8 6.3 5.7 6.3 6.4 6.5 6.6 6.5 6.5 6.7 6.8 6.9 7.2 7.3 7.4 7.4 7.4 7.3 7.4 7.4 7.5 7.6 7.6 7.7 7.8 7.7 7.6 7.5
7.9 7.9 7.7 7.6 7.5 7.4 7.5 7.7 7.9 7.9 7.7 7.2 7.2 6.9 6.8 6.8 6.8 6.4 6.0 6.4 6.4 6.6 6.8 6.8 6.8 6.9 6.9 7.0 7.0 7.0 7.1 7.2 7.2 7.3 7.4 7.5 7.5 7.5 7.6 7.6 7.6 7.6 7.7 7.6
8.0 8.0 7.9 7.7 7.6 7.4 7.4 7.6 7.8 7.7 7.7 7.3 7.3 7.3 7.1 6.6 6.8 6.5 6.6 6.6 6.5 6.6 6.8 6.9 7.0 7.0 7.0 7.1 7.3 7.3 7.3 7.4 7.4 7.5 7.4 7.5 7.6 7.6 7.5 7.5 7.5 7.4 7.3 7.3
8.0 8.1 8.0 7.8 7.7 7.5 7.4 7.5 7.6 7.5 7.7 7.5 7.4 7.3 6.9 6.7 6.6 6.6 6.6 6.6 6.6 6.7 6.8 7.0 7.1 7.2 7.2 7.3 7.3 7.3 7.3 7.5 7.6 7.6 7.7 7.7 7.6 7.6 7.6 7.5 7.5 7.5 7.5 7.5
8.0 8.0 8.0 7.9 7.8 7.6 7.4 7.4 7.4 7.7 7.7 7.7 7.7 7.6 6.9 7.1 6.8 6.5 6.5 6.6 6.7 6.8 6.7 6.9 7.1 7.3 7.3 7.2 7.3 7.4 7.5 7.6 7.6 7.6 7.5 7.4 7.5 7.5 7.5 7.5 7.4 7.4 7.4 7.4
7.8 7.8 7.8 7.7 7.7 7.7 7.5 7.3 7.3 7.4 7.6 7.7 7.6 7.5 7.2 7.0 7.1 6.8 6.6 6.8 6.8 6.8 6.8 7.0 7.1 7.2 7.2 7.3 7.4 7.4 7.5 7.5 7.5 7.4 7.4 7.4 7.4 7.4 7.5 7.5 7.3 7.2 7.0 6.9
7.6 7.6 7.6 7.6 7.5 7.5 7.6 7.5 7.2 7.2 7.3 7.4 7.5 7.5 7.2 6.9 6.6 6.6 6.6 6.6 6.8 6.9 7.1 7.3 7.4 7.4 7.4 7.4 7.3 7.3 7.3 7.2 7.3 7.2 7.3 7.5 7.5 7.5 7.4 7.1 6.9 6.8 6.8 6.9
7.7 7.7 7.6 7.5 7.5 7.4 7.4 7.5 7.3 7.2 7.1 7.2 7.2 7.2 7.1 6.9 6.8 6.6 6.6 6.7 7.0 6.9 7.0 7.1 7.2 7.2 7.2 7.2 7.2 7.2 7.2 7.2 7.2 7.3 7.4 7.4 7.3 7.1 6.9 6.8 7.1 7.3 7.4 7.8
7.9 7.9 7.8 7.6 7.6 7.5 7.4 7.4 7.4 7.3 7.2 7.1 7.1 7.2 6.9 7.0 7.0 6.7 6.7 6.7 6.8 6.9 6.7 6.4 6.8 6.9 7.1 7.2 7.2 7.2 7.2 7.4 7.3 7.3 7.2 7.0 6.8 6.9 7.1 7.2 7.4 7.5 7.6 7.8
7.6 7.5 7.6 7.6 7.6 7.6 7.6 7.6 7.5 7.3 7.2 7.2 7.1 7.1 7.1 7.0 7.0 6.7 6.5 6.5 6.5 6.5 6.6 6.5 6.6 6.8 7.1 7.1 7.1 7.2 7.2 7.2 7.1 6.9 6.8 6.9 6.9 7.0 7.1 7.2 7.3 7.4 7.5 7.6
Wind_Speed
4 7 5 3 6 4 10 8 6 3 5 4 4 6 5 6 9 12 13 14 13 12 12 14 15 9 7 4 4 3 4 2 1 4 4 1 6 12 14 15 13 14 14 12
4 7 9 12 13 14 12 11 8 11 16 3 2 4 5 5 7 12 15 15 14 14 13 13 15 12 7 5 3 1 2 2 2 5 5 6 5 2 8 8 9 13 12 15
4 0 2 4 12 13 10 10 9 10 11 3 4 7 6 7 9 12 13 14 16 15 14 14 14 14 10 5 3 2 2 4 1 1 4 7 7 7 7 4 9 12 9 13
3 1 3 5 2 4 9 5 5 4 4 3 6 7 8 7 11 13 11 11 16 18 17 15 14 15 9 4 5 4 3 5 5 5 5 6 5 6 8 8 9 6 8 7
2 3 5 4 4 3 4 5 6 5 3 6 2 6 7 8 6 10 10 11 16 17 19 15 13 14 10 4 4 4 5 6 7 7 8 7 4 5 6 8 9 7 9 9
1 2 3 1 1 3 1 4 5 5 6 5 3 4 9 10 6 9 11 12 16 18 17 16 15 13 8 6 7 7 4 6 8 8 10 9 7 6 5 4 7 7 9 9
3 4 6 4 5 3 4 5 4 5 7 6 4 8 10 12 15 12 12 16 19 19 20 19 14 12 10 9 10 8 8 4 8 8 9 8 8 3 6 8 9 10 9 7
2 3 6 5 3 5 6 3 5 5 7 8 9 12 12 17 15 14 16 19 20 18 17 19 16 12 12 9 3 10 12 7 8 8 7 7 11 7 7 9 9 6 8 6
7 5 5 5 4 5 2 4 4 4 8 9 12 12 14 15 15 14 17 20 22 20 21 16 14 15 14 11 12 11 10 8 9 9 8 7 7 8 6 7 7 6 5 5
2 1 4 3 5 3 3 3 7 9 11 8 13 12 15 13 11 12 16 20 22 21 16 12 14 15 12 14 14 12 12 10 8 10 9 8 5 5 5 4 5 6 6 5
3 4 5 3 1 6 13 13 13 13 9 11 10 13 12 10 10 13 16 20 16 14 5 8 12 11 10 11 17 12 12 10 9 8 9 10 6 4 5 4 4 5 4 4
4 1 2 5 6 11 11 13 14 15 16 14 11 15 12 8 9 13 17 17 9 7 6 9 13 11 11 10 13 15 12 9 8 8 8 8 8 8 14 10 12 13 11 6
2 4 4 8 9 5 12 15 17 16 15 15 15 11 10 5 10 16 15 6 4 4 8 12 12 12 11 10 11 13 12 10 8 8 7 7 6 6 6 7 15 14 14 12
4 5 7 4 9 12 13 13 16 14 13 12 14 10 4 6 11 12 7 2 4 5 7 10 10 10 9 10 13 14 12 12 7 6 7 6 7 5 4 5 4 3 7 8
3 6 8 9 11 9 11 12 16 15 16 15 10 0 4 9 11 5 1 6 8 9 7 10 10 10 8 11 12 11 9 7 7 6 7 7 6 4 4 3 4 4 3 3
5 8 7 7 10 12 13 14 14 15 16 16 8 6 5 5 7 5 6 7 9 9 8 9 10 7 8 10 12 11 9 11 9 7 6 6 4 4 3 3 4 3 3 3
3 8 9 10 11 13 13 11 11 13 14 12 10 5 4 5 8 6 9 10 9 8 8 7 7 7 8 9 12 9 7 7 9 6 5 4 4 4 3 3 2 2 1 1
2 3 5 7 9 10 12 12 11 10 10 11 6 5 4 5 5 6 6 8 9 10 9 6 6 7 7 8 8 8 7 6 5 5 4 3 3 3 3 3 3 2 1 2
2 4 4 6 7 8 9 10 10 9 8 8 4 4 4 4 5 5 5 8 7 7 5 4 6 7 6 6 6 5 5 5 5 4 3 4 3 2 3 4 4 5 5 4
2 3 4 3 4 6 8 9 9 7 7 6 5 5 5 5 4 6 7 8 5 2 3 4 5 6 6 6 6 4 4 4 4 3 3 3 3 3 2 4 3 3 3 3
3 4 3 3 3 4 5 8 7 6 7 6 5 4 4 4 5 4 6 5 4 4 5 6 5 4 4 4 4 3 3 4 4 3 3 3 2 3 3 2 2 2 2 3
4 4 3 3 4 3 3 6 5 5 5 5 5 4 4 4 4 5 3 4 2 4 4 4 5 6 5 5 2 4 4 4 3 3 3 2 2 1 2 1 1 2 3 3
1 2 3 5 6 3 1 3 4 3 4 4 4 4 3 3 3 2 2 3 2 4 3 3 4 5 4 2 2 3 3 3 2 2 1 1 1 1 1 1 2 3 4 4
2 1 3 1 4 4 5 3 3 3 1 1 2 2 2 2 3 3 3 3 2 4 3 3 3 2 3 2 2 2 3 2 2 2 1 1 1 1 1 2 3 3 4 4
4 2 2 2 2 2 4 5 4 3 3 3 1 1 0 1 1 2 1 1 2 3 3 3 1 2 1 2 2 2 2 2 2 2 2 3 2 3 3 3 2 3 3 3
5 3 3 3 1 1 2 3 3 3 4 3 2 2 1 1 2 3 3 4 2 3 2 1 2 2 3 3 3 3 3 3 3 3 4 3 3 4 3 2 3 3 3 3
4 5 3 3 2 2 2 3 3 4 4 4 4 3 3 3 3 3 4 2 2 2 2 2 2 3 3 3 3 2 2 3 5 4 4 3 3 2 2 2 2 3 3 3
Wind_Direction
263 247 246 270 302 252 216 230 214 217 226 282 305 306 320 314 335 333 322 310 305 306 315 317 314 302 285 280 297 329 333 326 138 72 58 116 195 181 184 190 185 179 173 166
269 245 237 243 241 237 240 243 246 270 281 97 241 290 316 317 325 314 305 309 306 301 310 314 321 309 274 252 258 2 57 31 321 79 71 65 70 290 183 134 144 160 172 158
261 100 200 281 236 238 242 235 219 236 251 6 325 316 300 312 294 293 300 303 303 299 305 309 314 314 284 230 214 158 164 138 169 31 129 135 118 99 74 81 147 148 154 147
270 103 257 250 269 225 236 242 203 250 239 219 244 262 283 263 278 292 286 292 306 301 298 301 305 303 284 208 190 156 149 119 103 93 69 73 101 107 120 109 88 77 102 114
178 221 288 274 234 233 194 263 198 216 264 270 315 325 294 254 238 240 261 282 297 294 292 293 291 292 265 188 134 131 133 106 90 98 87 64 54 95 95 103 115 119 107 99
79 221 256 327 75 90 55 287 188 192 248 267 64 321 278 274 254 269 279 289 296 293 287 281 281 283 230 180 144 136 137 122 108 100 94 85 61 42 44 87 97 104 100 105
198 235 283 225 159 127 96 244 211 201 239 254 208 219 266 290 291 277 275 289 293 294 285 276 264 263 222 181 165 137 116 122 108 99 105 108 96 68 85 78 71 72 78 61
179 218 276 169 68 165 218 251 233 227 244 258 254 270 269 281 288 288 290 299 293 293 274 269 253 238 207 173 165 136 129 138 114 114 110 113 110 100 85 95 92 89 96 87
180 213 233 228 216 245 8 260 291 262 270 266 275 271 279 283 288 291 301 306 304 293 279 260 223 224 189 162 141 128 124 115 111 106 98 93 101 111 112 111 119 118 111 116
128 234 240 271 272 273 298 273 286 281 282 286 281 294 293 288 290 301 309 311 305 294 270 234 209 203 161 143 132 132 120 117 119 115 109 96 88 90 104 116 124 125 127 123
268 299 317 349 341 356 332 326 317 304 277 274 280 289 296 285 294 305 306 314 304 299 185 127 103 106 116 138 132 125 123 121 120 114 107 96 75 86 97 68 94 111 95 103
228 48 285 275 328 316 312 312 300 292 294 289 282 284 286 274 301 300 305 307 314 322 114 110 106 98 96 113 123 124 118 119 118 113 101 101 101 82 63 82 86 92 93 110
275 327 270 277 280 275 315 310 306 298 287 281 280 277 267 291 297 309 308 289 280 30 68 89 85 88 87 96 114 107 111 114 110 108 110 115 114 110 112 74 78 81 91 102
273 313 294 307 312 301 316 321 324 322 319 294 273 275 231 285 309 303 285 148 91 73 68 67 85 81 90 101 93 99 103 100 100 105 108 104 93 101 113 102 93 68 51 71
357 322 309 304 307 329 333 330 328 330 334 328 312 264 16 320 315 319 109 104 88 74 67 80 74 71 78 87 95 95 91 90 94 91 90 93 88 77 81 90 83 84 76 35
328 317 318 324 336 329 331 331 332 330 336 339 326 39 26 351 348 33 55 71 80 78 74 82 90 84 91 104 107 98 95 94 93 96 96 99 109 118 121 96 90 88 62 42
340 333 343 330 329 330 332 330 325 325 329 332 339 16 338 39 19 32 59 56 57 63 75 82 91 95 93 90 95 98 103 103 101 99 103 114 109 92 95 100 105 90 188 193
309 326 336 333 333 332 333 333 327 320 325 315 311 331 331 72 75 26 72 80 69 52 39 34 67 81 86 94 97 105 109 115 120 122 114 107 114 123 124 120 140 147 206 202
335 331 332 329 331 330 322 322 322 316 323 317 329 28 17 38 73 61 50 73 64 66 22 30 73 81 87 94 103 107 118 120 123 131 124 125 123 138 148 166 180 181 173 185
329 330 337 318 332 330 326 335 324 332 344 344 8 27 66 49 34 74 72 67 54 70 53 64 81 78 82 92 97 102 116 126 130 125 137 142 152 173 178 189 180 180 183 174
344 334 312 318 303 311 325 343 332 349 355 15 36 25 42 71 63 50 75 79 31 55 65 59 71 63 51 56 72 96 114 124 130 142 147 137 158 189 193 184 175 178 190 193
347 330 359 334 318 295 330 350 347 357 16 23 27 37 44 47 65 68 55 95 63 59 60 59 62 64 68 51 79 78 74 77 85 89 89 127 159 180 154 170 212 228 233 227
71 11 342 355 328 312 316 359 344 354 23 16 22 32 48 44 31 46 62 30 73 78 75 75 76 62 65 55 70 76 68 61 76 98 136 172 165 207 181 206 235 238 237 231
145 323 331 29 7 9 25 15 358 350 346 17 11 18 85 81 40 37 75 81 121 115 103 84 79 110 117 110 120 126 125 127 113 96 68 22 290 262 245 252 246 236 242 243
188 219 291 356 28 8 4 345 338 316 315 316 8 11 232 159 159 143 114 97 86 79 79 72 87 97 84 84 94 100 96 97 89 106 86 74 60 61 46 31 24 25 17 11
183 185 179 147 136 351 12 358 348 340 339 323 295 224 173 117 127 140 140 127 123 118 117 107 86 88 96 87 88 94 100 97 95 76 79 67 58 50 38 30 29 21 12 356
197 175 169 162 164 76 25 9 354 336 323 303 295 256 182 172 170 160 150 138 125 115 113 102 93 101 96 97 89 69 90 93 86 87 78 72 63 81 63 53 34 14 2 349